#timestamp,LO_Frequency,Hit,StdDev 
1696291215.5,286047000.3,N
1696291235.3,286046999.9,N
1696291255.1,286047000.3,N
1696291275.9,286047000.4,N
1696291295.7,286047001.1,N
1696291315.6,286047000.3,N
1696291335.4,286046999.9,N
1696291355.2,286047002.5,N
1696291375.1,286047000.3,N
1696291376.0,286047000.3,N
1696291395.8,286047000.3,N
1696291415.7,286047000.6,N
1696291435.5,286046999.8,N
1696291455.3,286047002.2,N
1696291475.2,286047002.6,N
1696291495.0,286047002.3,N
1696291495.9,286047002.3,N
1696291515.7,286047001.8,N
1696291535.6,286047001.7,N
1696291555.4,286047001.8,N
1696291575.3,286047004.4,Y
1696291595.1,286047002.7,P
1696291615.8,286047000.0,N
1696291635.7,286047000.2,N
1696291655.5,286046999.9,N
1696291675.4,286046999.8,N
1696291695.2,286047002.7,N
1696291715.0,286047002.4,N
1696291715.9,286047002.4,N
1696291735.8,286047002.8,N
1696291755.6,286047002.7,N
1696291775.4,286047002.7,N
1696291795.3,286047002.3,N
1696291815.1,286047002.8,N
1696291835.9,286047002.7,N
1696291855.7,286047002.8,N
1696291875.5,286047000.1,N
1696291895.4,286046999.7,N
1696291915.2,286047002.8,N
1696291935.0,286047002.6,N
1696291935.9,286047002.6,N
1696291955.8,286047002.1,N
1696291975.6,286047002.3,N
1696291995.5,286047001.9,N
1696292015.3,286047000.1,N
1696292035.1,286047000.7,N
1696292055.9,286047000.3,N
1696292075.7,286047000.6,N
1696292095.5,286047000.6,N
1696292115.4,286047002.8,N
1696292135.2,286046999.8,N
1696292155.1,286047002.2,N
1696292156.0,286047002.2,N
1696292175.8,286047001.9,N
1696292195.6,286047001.6,N
1696292215.5,286047002.2,N
1696292235.3,286047002.6,N
1696292255.1,286047002.8,N
1696292275.9,286047002.4,N
1696292295.7,286047002.0,N
1696292315.6,286047001.8,N
1696292335.4,286047001.9,N
1696292355.2,286047002.3,N
1696292375.1,286047001.9,N
1696292376.0,286047001.9,N
1696292395.8,286047002.6,N
1696292415.7,286047000.0,N
1696292435.5,286047000.4,N
1696292455.3,286047000.4,N
1696292475.2,286047000.4,N
1696292495.9,286046999.7,N
1696292515.7,286047002.8,N
1696292535.6,286047002.8,N
1696292555.4,286046999.7,N
1696292575.3,286046999.7,N
1696292595.1,286047000.5,N
1696292596.0,286047000.5,N
1696292615.8,286046999.7,N
1696292635.7,286047000.4,N
1696292655.5,286047002.7,N
1696292675.3,286047002.5,N
1696292695.2,286047002.3,N
1696292715.0,286047001.6,N
1696292715.9,286047001.6,N
1696292735.8,286047001.8,N
1696292755.6,286047002.5,N
1696292775.4,286047004.3,Y
1696292795.3,286047002.8,P
1696292815.1,286046999.7,N
1696292835.8,286047001.0,N
1696292855.7,286047002.4,N
1696292875.5,286047000.1,N
1696292895.4,286047000.2,N
1696292915.2,286047000.3,N
1696292935.0,286047000.5,N
1696292935.9,286047000.5,N
1696292955.8,286047001.2,N
1696292975.6,286047001.1,N
1696292995.4,286047000.5,N
1696293015.3,286046999.8,N
1696293035.1,286047000.6,N
1696293055.9,286046999.8,N
1696293075.7,286047002.3,N
1696293095.5,286047002.8,Y
1696293115.4,286047000.4,P
1696293135.2,286047000.0,N
1696293155.1,286047000.2,N
1696293156.0,286047000.2,N
1696293175.8,286047000.4,N
1696293195.6,286047000.7,N
1696293215.5,286047000.1,N
1696293235.3,286047001.2,Y
1696293255.2,286047001.1,P
1696293275.9,286047000.0,N
1696293295.7,286047000.5,N
1696293315.6,286047000.7,N
1696293335.4,286047000.9,N
1696293355.3,286047002.8,Y
1696293375.1,286047000.3,P
1696293376.0,286047000.3,N
1696293395.8,286047000.5,P
1696293415.7,286047001.0,Y
1696293435.5,286047000.8,P
1696293455.4,286046998.6,P
1696293475.2,286046998.3,N
1696293495.0,286046998.7,N
1696293495.9,286046998.7,N
1696293515.8,286046998.8,N
1696293535.6,286046998.5,N
1696293555.4,286046998.5,N
1696293575.3,286046998.1,N
1696293595.1,286046998.4,N
1696293615.9,286046998.3,N
1696293635.7,286046998.2,N
1696293655.5,286046998.8,N
1696293675.4,286046999.1,N
1696293695.2,286046999.2,N
1696293715.0,286046997.1,Y
1696293715.9,286046997.1,P
1696293735.8,286046999.3,N
1696293755.6,286046996.7,P
1696293775.5,286046997.0,N
1696293795.3,286046995.0,Y
1696293815.1,286046998.6,P
1696293835.9,286046998.1,P
1696293855.7,286046998.4,P
1696293875.6,286046999.3,N
1696293895.4,286046996.8,Y
1696293915.2,286046998.7,P
1696293935.1,286047001.1,P
1696293936.0,286047001.1,N
1696293955.8,286046998.6,N
1696293975.6,286047000.8,N
1696293995.5,286047001.1,N
1696294015.3,286046999.5,N
1696294035.2,286046999.2,N
1696294055.9,286046999.4,N
1696294075.7,286046997.3,N
1696294095.6,286046996.7,N
1696294115.4,286046996.9,N
1696294135.3,286046997.6,N
1696294155.1,286046997.4,N
1696294156.0,286046997.4,N
1696294175.8,286046997.2,N
1696294195.7,286046995.6,N
1696294215.5,286046997.9,N
1696294235.4,286046995.4,N
1696294255.2,286046995.8,N
1696294275.0,286046994.6,Y
1696294275.9,286046994.6,P
1696294295.8,286046997.6,N
1696294315.6,286046994.9,P
1696294335.5,286046995.2,Y
1696294355.3,286046999.0,P
1696294375.1,286046998.6,N
1696294395.9,286046999.4,N
1696294415.7,286046998.8,N
1696294435.6,286046998.3,N
1696294455.4,286046999.4,N
1696294475.2,286046996.9,Y
1696294495.1,286047001.2,P
1696294496.0,286047001.2,N
1696294515.8,286047001.0,N
1696294535.7,286047000.4,N
1696294555.5,286046998.3,N
1696294575.3,286047001.0,N
1696294595.2,286046998.2,N
1696294615.0,286047000.8,N
1696294615.9,286047000.8,N
1696294635.7,286046998.1,N
1696294655.6,286046998.2,N
1696294675.4,286046998.8,N
1696294695.3,286046999.3,N
1696294715.1,286046998.2,N
1696294716.0,286046998.2,N
1696294735.8,286047000.7,N
1696294755.7,286047000.3,N
1696294775.5,286046998.7,N
1696294795.4,286046998.9,N
